Location: Newark
(49.8348°N, 24.0280°E)
Time: 19:53:10
(UTC+00:00)

Explorer 7 - Pass Details

Date: 24 January 2020
Orbit: 485 x 679 km, 50.3° (Epoch: 19 February)

Event Time Altitude Azimuth Distance (km) Brightness Sun altitude
Rises 03:30:00 0° 284° (WNW) 2,593 - -25.2°
Reaches altitude 10° 03:32:26 10° 270° (W) 1,730 - -24.8°
Maximum altitude 03:35:37 24° 215° (SW) 1,117 - -24.3°
Exits shadow 03:37:28 17° 177° (S) 1,374 8.9 -24.0°
Drops below altitude 10° 03:38:55 10° 161° (SSE) 1,802 9.7 -23.7°
Sets 03:41:31 0° 148° (SSE) 2,731 10.9 -23.3°
